Theta_e
300 299 298 298 298 298 298 298 298 298 298 298 299 298 298 298 298 298 298 298 298 298 299 299 299 300 300 308 311 313 314 313 312 314 314 315 315 317 322 326 327 328 328 328 330 331 332
302 300 299 299 299 299 299 299 299 298 299 299 300 300 301 301 300 300 300 300 299 299 299 299 299 299 306 308 308 310 312 313 314 316 317 321 319 319 320 323 325 327 327 327 328 328 329
299 299 300 300 300 301 301 301 301 300 300 300 301 301 301 301 301 301 301 301 301 301 300 300 299 300 308 307 308 310 310 311 313 314 317 319 323 322 321 323 323 325 328 329 330 329 330
300 300 301 301 301 300 300 300 301 301 301 301 301 301 301 301 301 301 301 302 302 301 302 300 300 305 308 306 307 308 308 309 309 311 313 314 317 317 321 322 323 325 326 329 329 329 330
300 300 300 301 300 300 300 300 300 301 301 301 301 301 301 301 300 300 300 300 301 305 307 304 302 309 309 309 310 310 309 308 309 309 311 313 314 317 318 322 324 325 327 327 329 329 329
300 300 299 300 300 300 300 300 300 301 301 301 302 302 301 301 301 300 300 300 307 307 309 311 311 311 312 311 310 309 310 311 309 309 311 313 314 316 318 320 325 325 325 327 329 329 329
300 300 300 301 301 301 301 301 301 302 302 302 302 302 302 302 301 300 303 308 308 310 312 313 313 313 311 310 308 308 308 309 311 313 312 313 316 317 318 318 320 323 326 326 328 328 329
300 300 300 300 300 300 300 301 300 301 301 301 301 300 301 301 300 305 309 309 308 307 307 307 307 307 307 307 307 307 308 308 310 313 314 314 317 318 317 318 318 319 322 325 327 327 328
300 300 300 300 300 300 300 300 300 300 300 301 301 300 300 300 301 309 308 308 307 306 308 307 307 307 307 307 308 308 308 307 309 310 314 314 315 316 318 318 318 319 321 323 324 325 326
299 300 300 300 300 300 300 300 300 301 300 300 301 300 300 303 308 307 308 307 306 306 308 309 309 309 308 308 309 309 309 308 309 308 310 313 315 315 317 318 319 321 320 320 322 323 326
299 299 299 299 300 300 299 299 299 300 300 301 301 300 301 308 307 308 307 307 307 307 311 310 312 311 311 312 313 313 312 309 309 309 309 309 312 315 315 318 319 320 319 320 321 323 325
299 299 299 299 299 299 299 298 299 299 300 301 301 301 304 308 309 309 307 307 307 310 312 309 309 308 309 310 311 312 312 313 311 310 310 310 310 312 316 316 317 320 319 320 322 323 326
297 297 297 297 298 298 298 298 298 300 300 300 301 303 307 308 307 307 307 308 310 311 309 306 307 307 308 308 309 311 312 312 314 315 313 312 310 311 313 315 317 318 323 323 324 324 325
297 296 297 297 297 297 297 298 299 300 300 300 302 307 308 309 307 307 307 309 309 310 307 307 307 307 308 308 308 308 310 311 311 311 313 315 317 312 312 314 317 318 322 323 323 324 324
295 296 296 297 297 297 298 299 300 300 301 300 303 309 309 308 308 308 309 310 308 308 306 307 307 309 309 309 309 309 308 309 310 311 314 316 316 316 315 313 316 318 319 321 325 323 323
295 296 296 297 297 298 299 299 300 301 301 301 306 309 309 309 308 308 310 309 308 307 306 306 307 308 309 309 309 310 311 311 312 311 312 311 312 313 317 314 314 318 319 321 324 325 326
294 295 296 297 298 298 297 298 300 301 301 302 309 311 311 307 309 309 311 309 307 306 306 307 307 308 309 309 310 309 309 310 312 311 311 311 313 312 316 318 314 318 319 320 324 323 326
293 294 295 297 298 297 297 297 301 301 301 302 309 312 309 308 310 311 310 308 307 308 306 306 308 308 308 310 310 310 310 312 311 311 312 311 314 316 314 317 317 317 319 321 324 325 325
293 293 294 295 297 297 297 296 301 301 301 303 310 309 310 308 312 310 308 308 308 307 308 309 307 308 309 309 311 310 312 310 310 310 313 314 316 317 316 316 319 320 319 322 325 328 327
296 295 294 294 295 297 298 296 300 301 302 305 310 312 309 307 309 308 309 308 308 308 309 308 308 308 309 310 310 310 310 311 311 311 311 311 313 315 319 318 319 323 322 321 323 326 326
297 297 297 295 294 295 298 296 297 302 304 306 309 310 309 310 309 308 307 307 309 308 307 307 309 309 309 310 308 310 311 311 311 311 311 311 313 314 315 314 317 320 324 322 322 326 326
299 297 298 298 298 295 297 297 295 302 303 307 307 307 306 305 307 309 308 308 309 308 308 308 309 310 309 310 310 310 310 310 311 311 310 312 316 315 317 315 315 317 320 322 322 323 325
305 303 299 300 300 298 296 296 294 299 303 307 306 306 305 306 308 309 310 308 309 308 309 307 308 311 310 310 309 309 309 309 310 310 311 313 316 318 318 315 316 318 321 323 323 324 326
307 307 304 304 303 301 297 296 293 295 302 303 305 306 306 307 308 309 309 308 308 308 308 309 309 310 309 309 309 310 311 310 310 311 311 312 313 316 319 318 318 318 323 323 322 325 326
308 307 307 307 305 304 301 298 296 294 297 303 304 306 306 308 306 308 308 308 308 307 308 309 309 309 309 310 311 312 314 313 313 313 312 313 313 319 320 321 318 323 326 327 324 327 328
306 306 306 306 306 305 305 303 299 297 294 301 304 306 306 306 308 306 307 308 309 308 308 308 308 309 310 311 311 312 315 315 315 314 314 313 314 317 318 324 322 323 323 322 326 331 327
306 306 306 305 307 307 305 303 300 299 294 296 303 305 306 306 306 307 309 308 308 307 308 308 307 308 310 312 311 314 314 313 316 318 318 313 315 318 319 320 318 318 320 323 330 329 326
305 306 306 306 306 307 306 303 299 298 298 294 298 305 307 306 306 307 308 308 308 308 308 307 307 309 311 312 312 312 314 312 315 314 316 320 319 321 320 320 321 314 318 324 322 322 322
307 307 307 306 306 306 307 306 305 302 301 295 298 306 307 307 306 306 307 308 309 308 306 304 305 306 307 309 311 311 313 312 313 315 313 318 315 316 318 317 313 314 315 316 318 320 320
Wind_Speed
18 18 18 18 17 17 18 18 18 18 18 18 18 18 18 18 19 20 20 21 21 22 22 21 20 19 18 13 21 16 16 15 8 18 23 28 31 29 29 28 31 31 28 37 39 36 37
18 18 18 19 19 19 19 19 19 19 19 19 20 20 21 22 22 21 20 19 19 20 22 23 23 20 15 24 13 15 18 16 16 17 23 23 30 32 32 33 31 36 36 38 40 39 39
17 17 17 18 19 19 19 19 19 19 19 19 19 20 21 22 24 24 24 23 21 21 20 21 22 21 22 31 18 16 15 15 20 21 22 21 23 30 36 31 40 40 33 32 32 36 33
18 19 20 20 20 21 20 20 21 20 20 19 18 19 21 22 22 22 22 22 21 21 22 18 19 15 20 17 19 21 22 24 25 25 26 23 22 26 31 38 39 32 32 30 29 29 37
19 20 21 21 21 20 20 20 20 21 22 22 23 24 25 26 26 27 26 24 19 15 17 16 14 11 18 11 12 16 16 25 24 25 26 24 25 25 21 21 22 29 23 33 33 29 30
21 21 21 22 22 22 22 21 21 22 23 24 25 26 26 26 26 27 29 24 16 19 12 8 12 12 21 13 14 4 6 7 17 22 23 27 22 19 18 19 24 23 30 34 29 26 27
21 21 22 22 22 22 22 23 23 24 26 27 28 28 28 28 28 28 21 21 22 7 5 20 18 16 27 13 6 10 9 12 11 16 20 26 17 25 42 31 30 26 32 33 29 25 27
20 21 22 22 23 24 25 25 25 26 26 27 29 30 29 27 26 14 12 15 17 14 23 24 35 41 38 34 35 32 21 21 17 17 19 20 28 37 23 29 30 33 33 31 28 26 23
20 21 22 23 24 24 25 25 26 26 27 29 30 31 31 29 20 9 14 14 18 17 20 40 47 41 35 29 33 31 26 28 22 21 20 23 36 25 28 28 31 32 33 26 30 24 27
21 22 23 23 24 24 24 26 27 27 27 27 29 30 23 20 7 14 11 16 17 17 9 11 9 5 14 15 21 24 25 29 25 26 22 24 25 31 29 33 31 28 28 28 27 22 21
20 21 22 23 24 24 25 26 27 27 28 28 29 25 13 19 16 11 17 17 16 9 6 12 16 8 13 10 9 9 10 19 24 22 20 33 24 26 30 36 28 34 22 26 27 25 21
20 21 22 23 24 25 25 26 28 29 28 28 28 18 17 12 17 15 18 14 12 4 5 11 6 8 12 17 21 17 10 12 15 21 20 28 32 27 27 28 32 26 29 27 25 19 18
20 21 22 23 24 26 26 27 28 29 28 27 24 12 15 10 17 18 13 11 5 4 18 7 19 18 17 14 15 15 14 9 7 8 18 24 26 29 28 29 28 31 22 16 18 17 22
22 22 22 23 25 26 27 27 29 29 28 28 14 10 10 7 16 13 11 4 4 9 17 21 18 21 19 20 17 19 7 10 19 16 14 15 19 27 26 31 27 29 26 15 24 17 19
23 23 23 24 24 25 27 29 30 29 26 27 16 11 7 9 11 10 11 2 3 12 17 19 21 17 16 16 15 20 13 17 13 11 7 8 12 21 22 29 29 28 28 29 23 21 16
23 23 24 24 23 25 28 29 29 28 24 20 14 9 8 9 11 9 6 9 9 14 13 17 17 14 21 24 6 11 11 6 12 5 1 7 16 20 29 26 32 31 20 26 18 25 22
24 24 24 23 23 25 29 30 29 27 24 16 10 6 2 8 8 6 4 10 19 21 15 15 16 15 18 20 18 13 8 15 8 8 5 11 11 23 23 21 28 23 25 22 21 17 16
25 25 25 23 23 26 30 31 29 27 25 16 8 5 2 7 6 6 6 20 28 23 18 14 11 13 10 19 21 20 18 7 1 7 12 14 7 17 25 25 15 29 25 23 15 25 17
25 25 26 26 23 25 30 32 28 22 21 19 9 15 1 2 4 9 16 17 21 17 16 19 13 16 12 13 7 6 4 14 7 5 3 7 6 11 18 20 22 18 28 25 19 12 20
24 25 26 27 27 24 27 32 30 19 14 12 8 4 11 14 9 11 15 16 17 23 15 22 20 19 5 12 19 5 5 10 8 8 10 3 6 15 11 13 13 10 20 31 25 17 17
24 25 26 27 28 27 25 30 30 20 8 9 6 4 11 7 11 13 14 16 18 17 19 24 12 17 21 22 19 14 14 11 7 5 5 3 5 14 19 19 15 19 29 27 31 23 22
24 24 26 27 28 29 24 28 29 22 9 5 9 9 12 21 16 15 13 13 19 21 19 16 15 20 20 19 19 21 18 16 9 4 0 4 4 15 20 16 8 21 32 25 29 27 27
24 24 25 26 28 29 24 26 27 24 11 6 9 10 8 12 12 11 8 13 18 21 13 23 20 18 18 16 23 29 27 28 23 18 14 7 3 6 6 10 3 15 23 23 22 24 27
24 25 25 26 27 27 25 24 27 24 13 9 12 13 7 9 12 14 16 12 18 22 22 26 26 13 16 26 30 26 27 26 22 21 19 16 12 6 3 9 2 13 13 17 19 18 23
24 26 27 27 27 27 26 25 24 26 20 12 11 12 5 7 20 14 20 18 21 24 20 17 16 18 28 21 11 11 8 14 21 23 20 15 9 4 4 8 10 15 8 18 18 4 18
25 26 27 27 27 26 27 25 26 23 24 16 11 15 11 8 5 25 20 19 11 12 13 21 24 21 19 7 9 10 3 5 5 6 11 10 8 3 4 2 6 4 23 33 16 11 20
25 26 26 26 25 26 26 26 25 23 23 19 16 11 14 8 22 20 19 13 13 8 8 22 22 14 8 6 5 5 7 14 6 7 9 3 3 7 7 3 3 14 26 18 4 3 11
27 25 24 25 24 25 25 26 23 24 25 22 20 11 16 11 31 19 15 23 23 12 3 10 11 6 6 6 4 4 3 6 7 5 6 5 7 3 3 3 2 23 17 10 4 12 20
29 29 25 25 24 25 25 25 25 26 27 21 18 8 14 19 35 35 25 23 18 14 6 2 4 9 4 3 4 3 2 4 8 4 8 3 4 4 5 3 6 17 16 18 16 15 19
Wind_Direction
30 28 24 19 17 11 5 2 357 353 350 348 345 342 338 335 332 329 326 323 320 315 310 306 304 308 309 255 246 280 303 297 269 227 232 233 232 232 238 234 240 241 242 248 252 252 258
25 21 18 18 14 11 7 1 357 353 350 346 344 342 341 339 335 333 329 324 317 312 307 304 301 300 288 267 267 264 267 250 248 236 237 231 235 235 247 240 240 244 247 250 252 257 260
28 25 22 19 14 9 5 4 360 354 350 345 343 341 339 338 336 334 330 326 321 315 305 296 294 290 268 254 262 253 254 255 247 244 244 242 242 235 242 249 249 253 257 259 256 260 264
26 22 16 13 7 4 2 1 1 359 359 355 346 340 336 335 333 329 322 317 313 311 305 294 283 276 262 267 260 263 260 259 251 247 246 247 254 272 254 254 259 249 255 259 254 255 258
25 20 15 12 9 7 5 3 2 2 358 353 348 344 341 339 337 335 327 320 308 298 299 300 277 230 277 289 260 261 250 249 247 246 243 243 246 255 266 249 246 245 246 249 250 247 262
24 21 20 18 16 14 11 9 4 0 355 349 343 339 336 335 334 334 327 328 326 291 290 273 257 253 252 280 261 221 268 251 234 241 243 229 230 239 241 236 226 221 235 241 255 250 250
23 23 21 20 17 14 11 8 3 359 354 348 344 338 332 331 332 336 336 358 349 280 249 263 276 222 287 287 247 240 276 263 246 244 233 226 216 222 220 220 239 235 238 247 252 247 248
21 20 17 14 10 8 4 1 359 357 352 347 343 338 332 329 331 339 344 325 328 308 298 280 265 262 260 269 270 262 259 251 246 241 231 227 220 227 234 230 236 243 252 253 261 258 262
18 15 13 9 7 4 0 358 355 352 348 347 343 339 333 329 333 355 318 322 326 316 292 281 265 261 261 251 251 253 244 243 243 249 235 224 237 229 239 232 238 237 240 247 258 268 269
12 9 7 4 2 0 357 355 354 352 345 342 341 341 343 353 356 324 329 332 328 327 292 288 218 219 228 249 255 250 242 233 239 239 248 249 243 242 230 238 231 240 235 245 252 252 256
4 2 1 357 355 354 354 354 352 349 345 345 343 345 357 353 356 341 330 324 322 321 275 34 32 33 346 318 272 181 226 226 234 240 231 244 249 237 238 238 231 246 240 248 249 249 260
359 360 359 356 353 350 352 352 351 351 348 344 341 343 359 3 321 322 324 322 319 256 237 8 17 308 344 341 322 313 223 211 235 237 247 253 252 255 252 241 247 243 243 252 257 257 248
357 359 358 355 351 346 349 352 351 352 348 342 345 355 4 353 334 327 324 313 285 269 297 18 348 343 327 293 267 233 260 259 213 277 245 244 243 253 251 255 232 239 238 231 238 234 244
351 353 352 350 347 345 349 352 350 351 348 338 348 1 354 339 329 333 333 325 290 325 338 353 347 330 315 323 291 285 261 273 279 232 246 271 274 224 239 245 242 218 233 224 219 221 240
355 356 354 352 350 350 353 354 352 350 351 339 341 322 323 326 342 333 331 333 258 290 352 339 342 349 334 317 341 320 276 267 276 336 242 307 276 277 276 240 242 244 220 236 248 234 249
356 356 354 353 354 356 354 353 354 349 354 345 340 315 272 314 327 326 310 297 270 331 329 334 339 324 309 318 307 309 329 338 293 166 352 303 289 280 289 223 241 240 232 222 228 232 242
358 357 356 357 355 356 353 353 357 352 356 346 326 249 232 354 320 307 295 300 318 319 334 324 326 310 324 322 315 313 232 235 267 293 273 266 256 272 283 266 215 230 235 220 242 227 235
359 357 355 354 352 355 354 353 357 355 356 3 301 293 159 10 314 279 308 322 308 309 334 328 331 312 323 306 305 308 298 22 353 325 299 301 289 270 261 273 269 232 230 232 219 220 230
359 357 356 352 348 351 353 354 356 360 355 350 304 323 291 338 326 328 317 327 319 336 336 325 321 313 331 328 312 297 9 314 308 326 319 354 250 266 259 273 262 247 225 235 240 237 215
354 354 355 355 350 345 350 353 355 0 355 347 301 336 325 323 320 320 313 318 321 320 322 332 321 311 335 288 288 281 334 261 253 280 294 318 270 269 271 268 343 303 271 225 228 215 222
350 351 352 353 354 349 345 351 354 357 7 344 327 285 343 298 313 314 298 294 314 331 336 332 318 326 328 327 316 327 315 311 345 327 255 163 275 287 281 250 269 290 282 248 220 202 222
347 347 349 351 352 351 347 349 351 356 1 322 337 336 327 302 305 297 321 322 316 327 327 317 324 324 319 308 310 312 312 306 302 249 137 239 273 283 282 250 244 293 285 277 221 198 213
345 345 345 348 349 351 349 350 350 353 3 331 336 319 296 294 297 326 295 324 314 318 309 311 319 322 316 323 313 296 285 278 279 279 272 255 281 299 251 185 293 271 243 250 220 203 210
345 344 344 345 345 347 347 346 351 349 344 298 306 313 296 292 317 327 335 315 312 318 306 314 307 305 310 318 308 289 262 255 252 251 245 249 276 290 328 84 269 258 255 234 217 204 207
333 337 341 341 340 341 342 339 339 346 337 313 299 294 283 287 310 316 338 337 322 319 313 318 325 338 326 317 300 305 314 240 228 230 231 220 249 270 239 177 293 293 10 332 205 103 10
326 329 332 333 337 337 338 335 336 335 338 319 297 291 264 296 310 324 319 316 318 323 317 325 329 337 326 316 326 321 284 335 311 300 245 180 211 192 331 220 209 340 336 323 331 74 20
322 324 328 328 331 335 337 337 334 334 336 317 297 270 276 262 283 316 313 306 314 304 293 313 344 322 342 334 335 340 339 348 5 9 332 247 259 263 285 241 312 324 332 301 143 64 3
321 321 323 325 325 329 333 337 336 335 331 325 306 255 263 266 291 286 308 301 306 317 296 316 323 0 333 347 344 360 309 345 340 337 348 340 320 342 281 202 351 336 350 48 324 359 20
316 322 318 318 321 324 326 330 332 330 330 322 302 300 282 253 280 292 284 280 278 284 281 300 283 309 313 323 344 325 313 315 331 7 349 28 21 319 1 1 328 321 351 9 10 41 12